| time (UTC) | temp F | wind direction | speed MPH | gust MPH | rain 1hr in | rain 24hr in | rain mn in | humidity % | barometer mb |
| 20260508022034 | 42 | 106 | 0.0 | 3.0 | 0.00 | 0.00 | 0.00 | 78 | 1010.4 |
| 20260508021555 | 42 | 106 | 0.0 | 3.0 | 0.00 | 0.00 | 0.00 | 78 | 1010.2 |
| 20260508021036 | 43 | 107 | 1.0 | 3.0 | 0.00 | 0.00 | 0.00 | 78 | 1010.3 |
| 20260508020534 | 43 | 119 | 1.0 | 4.0 | 0.00 | 0.00 | 0.00 | 77 | 1010.3 |
| 20260508020046 | 44 | 116 | 2.0 | 4.0 | 0.00 | 0.00 | 0.00 | 77 | 1010.2 |
| 20260508015534 | 44 | 113 | 1.0 | 4.0 | 0.00 | 0.00 | 0.00 | 77 | 1010.2 |
| 20260508015035 | 44 | 104 | 0.0 | 3.0 | 0.00 | 0.00 | 0.00 | 77 | 1010.1 |
| 20260508014544 | 45 | 104 | 0.0 | 3.0 | 0.00 | 0.00 | 0.00 | 76 | 1010.0 |
| 20260508014036 | 45 | 104 | 1.0 | 3.0 | 0.00 | 0.00 | 0.00 | 76 | 1009.8 |
| 20260508013535 | 45 | 0 | 1.0 | 3.0 | 0.00 | 0.00 | 0.00 | 75 | 1009.8 |
| 20260508013046 | 46 | 0 | 0.0 | 3.0 | 0.00 | 0.00 | 0.00 | 75 | 1009.7 |
| 20260508012537 | 46 | 103 | 1.0 | 3.0 | 0.00 | 0.00 | 0.00 | 74 | 1009.6 |
| 20260508012037 | 46 | 0 | 0.0 | 6.0 | 0.00 | 0.00 | 0.00 | 74 | 1009.6 |
| 20260508011541 | 47 | 0 | 1.0 | 6.0 | 0.00 | 0.00 | 0.00 | 73 | 1009.6 |
| 20260508011033 | 47 | 112 | 1.0 | 6.0 | 0.00 | 0.00 | 0.00 | 73 | 1009.6 |
| 20260508010534 | 48 | 63 | 1.0 | 6.0 | 0.00 | 0.00 | 0.00 | 73 | 1009.6 |
| 20260508010045 | 48 | 93 | 1.0 | 4.0 | 0.00 | 0.00 | 0.00 | 73 | 1009.5 |
| 20260508005538 | 49 | 0 | 0.0 | 2.0 | 0.00 | 0.00 | 0.00 | 72 | 1009.5 |
| 20260508005035 | 49 | 0 | 0.0 | 4.0 | 0.00 | 0.00 | 0.00 | 71 | 1009.3 |
| 20260508004547 | 49 | 0 | 0.0 | 4.0 | 0.00 | 0.00 | 0.00 | 70 | 1009.2 |
| 20260508004035 | 50 | 111 | 0.0 | 2.0 | 0.00 | 0.00 | 0.00 | 70 | 1009.1 |
| 20260508003537 | 50 | 0 | 0.0 | 7.0 | 0.00 | 0.00 | 0.00 | 69 | 1009.0 |
| 20260508003043 | 51 | 107 | 2.0 | 7.0 | 0.00 | 0.00 | 0.00 | 68 | 1008.9 |
| 20260508002534 | 51 | 95 | 2.0 | 7.0 | 0.00 | 0.00 | 0.00 | 68 | 1008.8 |
| 20260508002038 | 52 | 119 | 1.0 | 7.0 | 0.00 | 0.00 | 0.00 | 67 | 1008.9 |
| 20260508001542 | 52 | 78 | 2.0 | 8.0 | 0.00 | 0.00 | 0.00 | 68 | 1008.9 |
| 20260508001034 | 53 | 103 | 2.0 | 8.0 | 0.00 | 0.00 | 0.00 | 67 | 1008.9 |
| 20260508000536 | 53 | 97 | 3.0 | 8.0 | 0.00 | 0.00 | 0.00 | 67 | 1008.9 |
| 20260508000051 | 53 | 101 | 2.0 | 10.0 | 0.00 | 0.00 | 0.00 | 67 | 1008.8 |
| 20260507235534 | 53 | 0 | 3.0 | 10.0 | 0.00 | 0.00 | 0.00 | 67 | 1008.7 |
| 20260507235037 | 54 | 115 | 3.0 | 10.0 | 0.00 | 0.00 | 0.00 | 67 | 1008.6 |
| 20260507234545 | 54 | 89 | 1.0 | 8.0 | 0.00 | 0.00 | 0.00 | 65 | 1008.6 |
| 20260507234035 | 54 | 77 | 3.0 | 8.0 | 0.00 | 0.00 | 0.00 | 63 | 1008.8 |
| 20260507233536 | 54 | 111 | 2.0 | 9.0 | 0.00 | 0.00 | 0.00 | 63 | 1008.8 |
| 20260507233048 | 55 | 103 | 2.0 | 9.0 | 0.00 | 0.00 | 0.00 | 62 | 1008.7 |
| 20260507232534 | 55 | 132 | 1.0 | 7.0 | 0.00 | 0.00 | 0.00 | 62 | 1008.7 |
| 20260507232038 | 55 | 150 | 1.0 | 7.0 | 0.00 | 0.00 | 0.00 | 63 | 1008.7 |
| 20260507231554 | 55 | 112 | 1.0 | 8.0 | 0.00 | 0.00 | 0.00 | 65 | 1008.7 |
| 20260507231038 | 55 | 52 | 2.0 | 8.0 | 0.00 | 0.00 | 0.00 | 63 | 1008.6 |
| 20260507230535 | 54 | 118 | 3.0 | 7.0 | 0.00 | 0.00 | 0.00 | 63 | 1008.5 |
| 20260507230051 | 54 | 96 | 1.0 | 4.0 | 0.00 | 0.00 | 0.00 | 64 | 1008.6 |
| 20260507225535 | 53 | 98 | 1.0 | 4.0 | 0.00 | 0.00 | 0.00 | 65 | 1008.6 |
| 20260507225035 | 53 | 107 | 1.0 | 6.0 | 0.00 | 0.00 | 0.00 | 64 | 1008.7 |
| 20260507224552 | 53 | 112 | 2.0 | 8.0 | 0.00 | 0.00 | 0.00 | 63 | 1008.8 |
| 20260507224119 | 53 | 113 | 2.0 | 8.0 | 0.00 | 0.00 | 0.00 | 62 | 1008.8 |
| 20260507223534 | 53 | 95 | 2.0 | 8.0 | 0.00 | 0.00 | 0.00 | 62 | 1008.8 |
| 20260507223048 | 53 | 0 | 3.0 | 8.0 | 0.00 | 0.00 | 0.00 | 62 | 1008.8 |
| 20260507222536 | 53 | 79 | 2.0 | 8.0 | 0.00 | 0.00 | 0.00 | 62 | 1008.8 |
| 20260507222034 | 53 | 107 | 2.0 | 8.0 | 0.00 | 0.00 | 0.00 | 63 | 1008.9 |
| 20260507221544 | 53 | 169 | 2.0 | 8.0 | 0.00 | 0.00 | 0.00 | 62 | 1009.0 |
| 20260507221037 | 53 | 118 | 3.0 | 9.0 | 0.00 | 0.00 | 0.00 | 62 | 1009.1 |
| 20260507220538 | 53 | 105 | 3.0 | 11.0 | 0.00 | 0.00 | 0.00 | 62 | 1009.0 |
| 20260507220045 | 53 | 170 | 4.0 | 11.0 | 0.00 | 0.00 | 0.00 | 62 | 1009.1 |
| 20260507215537 | 52 | 113 | 4.0 | 9.0 | 0.00 | 0.00 | 0.00 | 62 | 1009.0 |
| 20260507215034 | 52 | 113 | 4.0 | 9.0 | 0.00 | 0.00 | 0.00 | 62 | 1009.0 |
| 20260507214600 | 52 | 86 | 3.0 | 9.0 | 0.00 | 0.00 | 0.00 | 61 | 1009.1 |
| 20260507214035 | 52 | 104 | 0.0 | 7.0 | 0.00 | 0.00 | 0.00 | 61 | 1009.0 |
| 20260507213538 | 52 | 119 | 2.0 | 8.0 | 0.00 | 0.00 | 0.00 | 59 | 1009.1 |
| 20260507213044 | 53 | 90 | 3.0 | 9.0 | 0.00 | 0.00 | 0.00 | 59 | 1009.0 |
| 20260507212541 | 53 | 126 | 3.0 | 11.0 | 0.00 | 0.00 | 0.00 | 60 | 1009.1 |
| 20260507212038 | 53 | 86 | 5.0 | 12.0 | 0.00 | 0.00 | 0.00 | 60 | 1009.1 |
| 20260507211538 | 53 | 106 | 5.0 | 12.0 | 0.00 | 0.00 | 0.00 | 60 | 1009.2 |
| 20260507211034 | 52 | 82 | 5.0 | 12.0 | 0.00 | 0.00 | 0.00 | 60 | 1009.2 |
| 20260507210534 | 52 | 115 | 4.0 | 13.0 | 0.00 | 0.00 | 0.00 | 61 | 1009.2 |
| 20260507210045 | 52 | 94 | 4.0 | 13.0 | 0.00 | 0.00 | 0.00 | 59 | 1009.2 |
| 20260507205534 | 53 | 115 | 6.0 | 13.0 | 0.00 | 0.00 | 0.00 | 57 | 1009.1 |
| 20260507205036 | 54 | 176 | 6.0 | 12.0 | 0.00 | 0.00 | 0.00 | 56 | 1009.2 |
| 20260507204547 | 55 | 228 | 2.0 | 11.0 | 0.00 | 0.00 | 0.00 | 57 | 1009.1 |
| 20260507204038 | 56 | 169 | 4.0 | 11.0 | 0.00 | 0.00 | 0.00 | 59 | 1009.1 |
| 20260507203534 | 56 | 117 | 1.0 | 7.0 | 0.00 | 0.00 | 0.00 | 58 | 1009.1 |
| 20260507203102 | 56 | 0 | 0.0 | 8.0 | 0.00 | 0.00 | 0.00 | 54 | 1009.1 |
| 20260507202537 | 56 | 44 | 3.0 | 8.0 | 0.00 | 0.00 | 0.00 | 55 | 1009.0 |
| 20260507202034 | 56 | 51 | 2.0 | 7.0 | 0.00 | 0.00 | 0.00 | 56 | 1009.0 |
| 20260507201556 | 55 | 339 | 2.0 | 8.0 | 0.00 | 0.00 | 0.00 | 58 | 1009.3 |
| 20260507201035 | 55 | 33 | 1.0 | 11.0 | 0.00 | 0.00 | 0.00 | 58 | 1009.3 |
| 20260507200537 | 54 | 215 | 2.0 | 11.0 | 0.00 | 0.00 | 0.00 | 61 | 1009.3 |
| 20260507200058 | 53 | 269 | 3.0 | 11.0 | 0.00 | 0.00 | 0.00 | 62 | 1009.6 |
| 20260507195534 | 52 | 205 | 4.0 | 14.0 | 0.00 | 0.00 | 0.00 | 61 | 1009.9 |
| 20260507195036 | 53 | 290 | 6.0 | 14.0 | 0.00 | 0.00 | 0.00 | 59 | 1010.0 |
| 20260507194546 | 53 | 21 | 7.0 | 14.0 | 0.00 | 0.00 | 0.00 | 59 | 1009.7 |
| 20260507194034 | 54 | 5 | 6.0 | 11.0 | 0.00 | 0.00 | 0.00 | 56 | 1009.6 |
| 20260507193534 | 54 | 309 | 4.0 | 12.0 | 0.00 | 0.00 | 0.00 | 55 | 1009.5 |
| 20260507193051 | 55 | 340 | 5.0 | 12.0 | 0.00 | 0.00 | 0.00 | 53 | 1009.5 |
| 20260507192535 | 55 | 347 | 3.0 | 9.0 | 0.00 | 0.00 | 0.00 | 51 | 1009.5 |
| 20260507192039 | 55 | 228 | 3.0 | 10.0 | 0.00 | 0.00 | 0.00 | 50 | 1009.4 |
| 20260507191541 | 56 | 219 | 3.0 | 10.0 | 0.00 | 0.00 | 0.00 | 49 | 1009.6 |
| 20260507191035 | 56 | 132 | 3.0 | 14.0 | 0.00 | 0.00 | 0.00 | 47 | 1009.4 |
| 20260507190538 | 57 | 263 | 5.0 | 14.0 | 0.00 | 0.00 | 0.00 | 47 | 1009.4 |
| 20260507190040 | 57 | 224 | 5.0 | 20.0 | 0.00 | 0.00 | 0.00 | 48 | 1009.4 |
| 20260507185537 | 57 | 230 | 7.0 | 23.0 | 0.00 | 0.00 | 0.00 | 47 | 1009.3 |
| 20260507185034 | 58 | 168 | 8.0 | 23.0 | 0.00 | 0.00 | 0.00 | 50 | 1009.4 |
| 20260507184556 | 58 | 229 | 9.0 | 19.0 | 0.00 | 0.00 | 0.00 | 46 | 1009.6 |
| 20260507184035 | 58 | 248 | 5.0 | 14.0 | 0.00 | 0.00 | 0.00 | 49 | 1009.6 |
| 20260507183534 | 57 | 226 | 6.0 | 12.0 | 0.00 | 0.00 | 0.00 | 47 | 1009.8 |
| 20260507183050 | 55 | 196 | 2.0 | 12.0 | 0.00 | 0.00 | 0.00 | 51 | 1010.1 |
| 20260507182534 | 55 | 307 | 3.0 | 12.0 | 0.00 | 0.00 | 0.00 | 52 | 1010.2 |
| 20260507182037 | 55 | 234 | 4.0 | 13.0 | 0.00 | 0.00 | 0.00 | 49 | 1010.3 |
| 20260507181548 | 55 | 174 | 5.0 | 13.0 | 0.00 | 0.00 | 0.00 | 48 | 1010.3 |
| 20260507181036 | 55 | 165 | 4.0 | 10.0 | 0.00 | 0.00 | 0.00 | 51 | 1010.4 |
| 20260507180537 | 55 | 266 | 4.0 | 11.0 | 0.00 | 0.00 | 0.00 | 51 | 1010.5 |
| 20260507180047 | 55 | 271 | 2.0 | 11.0 | 0.00 | 0.00 | 0.00 | 52 | 1010.4 |
| 20260507175537 | 55 | 272 | 2.0 | 11.0 | 0.00 | 0.00 | 0.00 | 53 | 1010.5 |
| 20260507175036 | 54 | 277 | 5.0 | 11.0 | 0.00 | 0.00 | 0.00 | 51 | 1010.7 |
| 20260507174550 | 54 | 218 | 3.0 | 11.0 | 0.00 | 0.00 | 0.00 | 54 | 1010.8 |
| 20260507174034 | 53 | 223 | 3.0 | 11.0 | 0.00 | 0.00 | 0.00 | 52 | 1010.9 |
| 20260507173535 | 53 | 291 | 4.0 | 14.0 | 0.00 | 0.00 | 0.00 | 52 | 1010.9 |
| 20260507173039 | 54 | 215 | 3.0 | 14.0 | 0.00 | 0.00 | 0.00 | 52 | 1010.9 |
| 20260507172536 | 54 | 208 | 1.0 | 8.0 | 0.00 | 0.00 | 0.00 | 53 | 1011.1 |
| 20260507172035 | 54 | 250 | 2.0 | 11.0 | 0.00 | 0.00 | 0.00 | 51 | 1011.1 |
| 20260507171548 | 55 | 212 | 2.0 | 11.0 | 0.00 | 0.00 | 0.00 | 52 | 1011.2 |
| 20260507171037 | 55 | 322 | 4.0 | 11.0 | 0.00 | 0.00 | 0.00 | 55 | 1011.3 |
| 20260507170535 | 55 | 292 | 2.0 | 9.0 | 0.00 | 0.00 | 0.00 | 52 | 1011.4 |
| 20260507170051 | 55 | 279 | 3.0 | 10.0 | 0.00 | 0.00 | 0.00 | 52 | 1011.4 |
| 20260507165534 | 55 | 256 | 3.0 | 10.0 | 0.00 | 0.00 | 0.00 | 53 | 1011.6 |
| 20260507165034 | 54 | 313 | 2.0 | 9.0 | 0.00 | 0.00 | 0.00 | 54 | 1011.6 |
| 20260507164556 | 54 | 292 | 3.0 | 8.0 | 0.00 | 0.00 | 0.00 | 52 | 1011.7 |
| 20260507164034 | 53 | 246 | 2.0 | 8.0 | 0.00 | 0.00 | 0.00 | 52 | 1011.6 |
| 20260507163533 | 53 | 239 | 2.0 | 9.0 | 0.00 | 0.00 | 0.00 | 57 | 1011.8 |
| 20260507163044 | 53 | 276 | 2.0 | 9.0 | 0.00 | 0.00 | 0.00 | 51 | 1011.9 |
| 20260507162535 | 53 | 272 | 3.0 | 9.0 | 0.00 | 0.00 | 0.00 | 53 | 1011.8 |
| 20260507162034 | 52 | 206 | 2.0 | 9.0 | 0.00 | 0.00 | 0.00 | 57 | 1011.9 |
| 20260507161550 | 52 | 261 | 3.0 | 7.0 | 0.00 | 0.00 | 0.00 | 54 | 1011.9 |
| 20260507161034 | 52 | 355 | 2.0 | 10.0 | 0.00 | 0.00 | 0.00 | 53 | 1012.0 |
| 20260507160534 | 52 | 253 | 2.0 | 10.0 | 0.00 | 0.00 | 0.00 | 52 | 1012.1 |
| 20260507160047 | 52 | 294 | 3.0 | 10.0 | 0.00 | 0.00 | 0.00 | 56 | 1012.1 |
| 20260507155536 | 51 | 280 | 3.0 | 12.0 | 0.00 | 0.00 | 0.00 | 57 | 1012.3 |
| 20260507155037 | 51 | 194 | 2.0 | 12.0 | 0.00 | 0.00 | 0.00 | 55 | 1012.4 |
| 20260507154553 | 50 | 272 | 2.0 | 12.0 | 0.00 | 0.00 | 0.00 | 57 | 1012.5 |
| 20260507154036 | 50 | 282 | 1.0 | 12.0 | 0.00 | 0.00 | 0.00 | 56 | 1012.5 |
| 20260507153534 | 50 | 194 | 3.0 | 12.0 | 0.00 | 0.00 | 0.00 | 56 | 1012.6 |
| 20260507153047 | 49 | 284 | 2.0 | 8.0 | 0.00 | 0.00 | 0.00 | 58 | 1012.7 |
| 20260507152535 | 49 | 181 | 1.0 | 8.0 | 0.00 | 0.00 | 0.00 | 60 | 1012.8 |
| 20260507152034 | 49 | 276 | 1.0 | 8.0 | 0.00 | 0.00 | 0.00 | 59 | 1012.7 |
| 20260507151543 | 49 | 221 | 3.0 | 8.0 | 0.00 | 0.00 | 0.00 | 59 | 1012.9 |
| 20260507151034 | 49 | 265 | 1.0 | 8.0 | 0.00 | 0.00 | 0.00 | 59 | 1013.0 |
| 20260507150535 | 48 | 216 | 3.0 | 9.0 | 0.00 | 0.00 | 0.00 | 61 | 1013.1 |
| 20260507150043 | 48 | 273 | 2.0 | 9.0 | 0.00 | 0.00 | 0.00 | 61 | 1013.2 |
| 20260507145534 | 47 | 251 | 2.0 | 7.0 | 0.00 | 0.00 | 0.00 | 61 | 1013.2 |
| 20260507145035 | 47 | 277 | 2.0 | 9.0 | 0.00 | 0.00 | 0.00 | 62 | 1013.4 |
| 20260507144539 | 46 | 220 | 3.0 | 9.0 | 0.00 | 0.00 | 0.00 | 59 | 1013.5 |
| 20260507144035 | 46 | 182 | 3.0 | 9.0 | 0.00 | 0.00 | 0.00 | 62 | 1013.6 |
| 20260507143535 | 46 | 290 | 2.0 | 10.0 | 0.00 | 0.00 | 0.00 | 64 | 1013.6 |
| 20260507143057 | 45 | 281 | 1.0 | 10.0 | 0.00 | 0.00 | 0.00 | 64 | 1013.7 |
| 20260507142535 | 45 | 173 | 3.0 | 10.0 | 0.00 | 0.00 | 0.00 | 63 | 1013.7 |
| 20260507142035 | 45 | 299 | 2.0 | 7.0 | 0.00 | 0.00 | 0.00 | 66 | 1013.8 |
| 20260507141552 | 44 | 202 | 3.0 | 7.0 | 0.00 | 0.00 | 0.00 | 66 | 1014.0 |
| 20260507141037 | 43 | 196 | 3.0 | 8.0 | 0.00 | 0.00 | 0.00 | 66 | 1014.0 |
| 20260507140535 | 44 | 210 | 2.0 | 8.0 | 0.00 | 0.00 | 0.00 | 67 | 1014.1 |
| 20260507140044 | 44 | 198 | 2.0 | 6.0 | 0.00 | 0.00 | 0.00 | 68 | 1014.1 |
| 20260507135534 | 44 | 222 | 1.0 | 6.0 | 0.00 | 0.00 | 0.00 | 68 | 1014.1 |
| 20260507135034 | 44 | 207 | 2.0 | 6.0 | 0.00 | 0.00 | 0.00 | 68 | 1014.1 |
| 20260507134542 | 43 | 297 | 2.0 | 6.0 | 0.00 | 0.00 | 0.00 | 69 | 1014.2 |
| 20260507134035 | 43 | 278 | 1.0 | 5.0 | 0.00 | 0.00 | 0.00 | 71 | 1014.2 |
| 20260507133535 | 42 | 252 | 2.0 | 5.0 | 0.00 | 0.00 | 0.00 | 73 | 1014.3 |
| 20260507133059 | 42 | 240 | 1.0 | 7.0 | 0.00 | 0.00 | 0.00 | 72 | 1014.3 |
| 20260507132536 | 41 | 223 | 3.0 | 7.0 | 0.00 | 0.00 | 0.00 | 73 | 1014.2 |
| 20260507132034 | 41 | 238 | 2.0 | 7.0 | 0.00 | 0.00 | 0.00 | 73 | 1014.3 |
| 20260507131552 | 40 | 238 | 2.0 | 6.0 | 0.00 | 0.00 | 0.00 | 74 | 1014.3 |
| 20260507131036 | 39 | 289 | 2.0 | 4.0 | 0.00 | 0.00 | 0.00 | 77 | 1014.4 |
| 20260507130535 | 39 | 257 | 0.0 | 4.0 | 0.00 | 0.00 | 0.00 | 79 | 1014.4 |
| 20260507130105 | 39 | 0 | 1.0 | 4.0 | 0.00 | 0.00 | 0.00 | 78 | 1014.4 |
| 20260507125536 | 38 | 0 | 1.0 | 5.0 | 0.00 | 0.00 | 0.00 | 79 | 1014.4 |
| 20260507125036 | 38 | 0 | 1.0 | 5.0 | 0.00 | 0.00 | 0.00 | 78 | 1014.2 |
| 20260507124547 | 37 | 219 | 2.0 | 7.0 | 0.00 | 0.00 | 0.00 | 78 | 1014.4 |
| 20260507124033 | 37 | 202 | 2.0 | 7.0 | 0.00 | 0.00 | 0.00 | 80 | 1014.4 |
| 20260507123536 | 37 | 204 | 2.0 | 6.0 | 0.00 | 0.00 | 0.00 | 82 | 1014.4 |
| 20260507123043 | 36 | 271 | 0.0 | 4.0 | 0.00 | 0.00 | 0.00 | 84 | 1014.3 |
| 20260507122534 | 36 | 277 | 0.0 | 2.0 | 0.00 | 0.00 | 0.00 | 85 | 1014.3 |
| 20260507122035 | 35 | 0 | 0.0 | 2.0 | 0.00 | 0.00 | 0.00 | 85 | 1014.2 |
| 20260507121540 | 35 | 0 | 0.0 | 2.0 | 0.00 | 0.00 | 0.00 | 85 | 1014.2 |
| 20260507121039 | 35 | 0 | 0.0 | 2.0 | 0.00 | 0.00 | 0.00 | 85 | 1014.2 |
| 20260507120535 | 35 | 278 | 0.0 | 5.0 | 0.00 | 0.00 | 0.00 | 86 | 1014.2 |
| 20260507120059 | 34 | 0 | 0.0 | 6.0 | 0.00 | 0.00 | 0.00 | 86 | 1014.1 |
| 20260507115536 | 34 | 0 | 1.0 | 6.0 | 0.00 | 0.00 | 0.00 | 87 | 1014.1 |
| 20260507115035 | 33 | 225 | 0.0 | 4.0 | 0.00 | 0.00 | 0.00 | 89 | 1014.1 |
| 20260507114632 | 33 | 240 | 0.0 | 4.0 | 0.00 | 0.00 | 0.00 | 90 | 1014.0 |
| 20260507114035 | 32 | 261 | 0.0 | 3.0 | 0.00 | 0.00 | 0.00 | 92 | 1013.9 |
| 20260507113537 | 32 | 263 | 0.0 | 4.0 | 0.00 | 0.00 | 0.00 | 93 | 1014.0 |
| 20260507113045 | 31 | 0 | 1.0 | 4.0 | 0.00 | 0.00 | 0.00 | 94 | 1013.9 |
| 20260507112536 | 30 | 0 | 0.0 | 4.0 | 0.00 | 0.00 | 0.00 | 95 | 1013.8 |
| 20260507112038 | 29 | 0 | 0.0 | 4.0 | 0.00 | 0.00 | 0.00 | 95 | 1013.9 |
| 20260507111544 | 29 | 0 | 0.0 | 2.0 | 0.00 | 0.00 | 0.00 | 95 | 1014.1 |
| 20260507111037 | 28 | 292 | 0.0 | 2.0 | 0.00 | 0.00 | 0.00 | 94 | 1014.0 |
| 20260507110536 | 28 | 0 | 0.0 | 1.0 | 0.00 | 0.00 | 0.00 | 94 | 1013.9 |
| 20260507110050 | 28 | 0 | 0.0 | 0.0 | 0.00 | 0.00 | 0.00 | 94 | 1013.8 |
| 20260507105533 | 27 | 0 | 0.0 | 0.0 | 0.00 | 0.00 | 0.00 | 93 | 1013.8 |
| 20260507105037 | 27 | 0 | 0.0 | 0.0 | 0.00 | 0.00 | 0.00 | 93 | 1013.9 |
| 20260507104548 | 27 | 0 | 0.0 | 0.0 | 0.00 | 0.00 | 0.00 | 93 | 1013.8 |
| 20260507104033 | 27 | 0 | 0.0 | 0.0 | 0.00 | 0.00 | 0.00 | 93 | 1013.7 |
| 20260507103535 | 28 | 0 | 0.0 | 0.0 | 0.00 | 0.00 | 0.00 | 93 | 1013.8 |
| 20260507103048 | 27 | 0 | 0.0 | 0.0 | 0.00 | 0.00 | 0.00 | 93 | 1013.9 |
| 20260507102535 | 28 | 0 | 0.0 | 0.0 | 0.00 | 0.00 | 0.00 | 93 | 1014.0 |
| 20260507102040 | 28 | 0 | 0.0 | 0.0 | 0.00 | 0.00 | 0.00 | 92 | 1013.8 |
| 20260507101543 | 28 | 0 | 0.0 | 0.0 | 0.00 | 0.00 | 0.00 | 92 | 1013.9 |
| 20260507101035 | 28 | 0 | 0.0 | 0.0 | 0.00 | 0.00 | 0.00 | 92 | 1013.7 |
| 20260507100535 | 28 | 0 | 0.0 | 0.0 | 0.00 | 0.00 | 0.00 | 92 | 1013.9 |
| 20260507100047 | 28 | 0 | 0.0 | 0.0 | 0.00 | 0.00 | 0.00 | 93 | 1013.8 |
| 20260507095535 | 28 | 0 | 0.0 | 0.0 | 0.00 | 0.00 | 0.00 | 93 | 1013.8 |
| 20260507095033 | 28 | 0 | 0.0 | 0.0 | 0.00 | 0.00 | 0.00 | 92 | 1013.8 |
| 20260507094545 | 28 | 0 | 0.0 | 0.0 | 0.00 | 0.00 | 0.00 | 92 | 1013.8 |
| 20260507094034 | 28 | 0 | 0.0 | 0.0 | 0.00 | 0.00 | 0.00 | 92 | 1013.6 |
| 20260507093534 | 28 | 0 | 0.0 | 0.0 | 0.00 | 0.00 | 0.00 | 92 | 1013.7 |
| 20260507093050 | 28 | 0 | 0.0 | 0.0 | 0.00 | 0.00 | 0.00 | 92 | 1013.7 |
| 20260507092534 | 28 | 0 | 0.0 | 0.0 | 0.00 | 0.00 | 0.00 | 91 | 1013.7 |
| 20260507092033 | 28 | 0 | 0.0 | 0.0 | 0.00 | 0.00 | 0.00 | 91 | 1013.7 |
| 20260507091546 | 28 | 0 | 0.0 | 0.0 | 0.00 | 0.00 | 0.00 | 90 | 1013.7 |
| 20260507091035 | 28 | 0 | 0.0 | 0.0 | 0.00 | 0.00 | 0.00 | 90 | 1013.7 |
| 20260507090535 | 28 | 0 | 0.0 | 0.0 | 0.00 | 0.00 | 0.00 | 90 | 1013.7 |
| 20260507090049 | 28 | 0 | 0.0 | 0.0 | 0.00 | 0.00 | 0.00 | 90 | 1013.7 |
| 20260507085536 | 28 | 0 | 0.0 | 0.0 | 0.00 | 0.00 | 0.00 | 90 | 1013.8 |
| 20260507085034 | 28 | 0 | 0.0 | 0.0 | 0.00 | 0.00 | 0.00 | 90 | 1013.7 |
| 20260507084555 | 29 | 0 | 0.0 | 0.0 | 0.00 | 0.00 | 0.00 | 90 | 1013.8 |
| 20260507084034 | 28 | 0 | 0.0 | 0.0 | 0.00 | 0.00 | 0.00 | 90 | 1013.7 |
| 20260507083534 | 28 | 0 | 0.0 | 0.0 | 0.00 | 0.00 | 0.00 | 89 | 1013.7 |
| 20260507083044 | 29 | 0 | 0.0 | 0.0 | 0.00 | 0.00 | 0.00 | 89 | 1013.7 |
| 20260507082533 | 29 | 0 | 0.0 | 0.0 | 0.00 | 0.00 | 0.00 | 89 | 1013.8 |
| 20260507082034 | 29 | 0 | 0.0 | 0.0 | 0.00 | 0.00 | 0.00 | 89 | 1013.7 |
| 20260507081543 | 29 | 0 | 0.0 | 0.0 | 0.00 | 0.00 | 0.00 | 89 | 1013.7 |
| 20260507081035 | 29 | 0 | 0.0 | 0.0 | 0.00 | 0.00 | 0.00 | 89 | 1013.7 |
| 20260507080535 | 29 | 0 | 0.0 | 0.0 | 0.00 | 0.00 | 0.00 | 89 | 1013.7 |
| 20260507080111 | 29 | 0 | 0.0 | 0.0 | 0.00 | 0.00 | 0.00 | 88 | 1013.7 |
| 20260507075534 | 29 | 0 | 0.0 | 0.0 | 0.00 | 0.00 | 0.00 | 88 | 1013.7 |
| 20260507075036 | 29 | 0 | 0.0 | 0.0 | 0.00 | 0.00 | 0.00 | 88 | 1013.7 |
| 20260507074548 | 29 | 0 | 0.0 | 0.0 | 0.00 | 0.00 | 0.00 | 88 | 1013.6 |
| 20260507074035 | 29 | 0 | 0.0 | 0.0 | 0.00 | 0.00 | 0.00 | 87 | 1013.7 |
| 20260507073534 | 30 | 0 | 0.0 | 0.0 | 0.00 | 0.00 | 0.00 | 86 | 1013.9 |
| 20260507073057 | 30 | 0 | 0.0 | 0.0 | 0.00 | 0.00 | 0.00 | 86 | 1014.0 |
| 20260507072535 | 30 | 0 | 0.0 | 0.0 | 0.00 | 0.00 | 0.00 | 85 | 1013.9 |
| 20260507072038 | 30 | 0 | 0.0 | 0.0 | 0.00 | 0.00 | 0.00 | 85 | 1013.9 |
| 20260507071549 | 30 | 0 | 0.0 | 0.0 | 0.00 | 0.00 | 0.00 | 84 | 1013.9 |
| 20260507071043 | 31 | 0 | 0.0 | 0.0 | 0.00 | 0.00 | 0.00 | 83 | 1014.0 |
| 20260507070538 | 31 | 0 | 0.0 | 0.0 | 0.00 | 0.00 | 0.00 | 83 | 1014.0 |
| 20260507070050 | 32 | 0 | 0.0 | 0.0 | 0.00 | 0.00 | 0.00 | 83 | 1014.0 |
| 20260507065538 | 32 | 0 | 0.0 | 0.0 | 0.00 | 0.00 | 0.00 | 83 | 1014.1 |
| 20260507065037 | 32 | 0 | 0.0 | 0.0 | 0.00 | 0.00 | 0.00 | 81 | 1014.1 |
| 20260507064549 | 33 | 0 | 0.0 | 0.0 | 0.00 | 0.00 | 0.00 | 80 | 1014.2 |
| 20260507064038 | 33 | 0 | 0.0 | 0.0 | 0.00 | 0.00 | 0.00 | 80 | 1014.1 |
| 20260507063534 | 33 | 0 | 0.0 | 0.0 | 0.00 | 0.00 | 0.00 | 80 | 1014.2 |
| 20260507063048 | 34 | 0 | 0.0 | 0.0 | 0.00 | 0.00 | 0.00 | 79 | 1014.3 |
| 20260507062537 | 34 | 0 | 0.0 | 0.0 | 0.00 | 0.00 | 0.00 | 78 | 1014.4 |
| 20260507062038 | 34 | 0 | 0.0 | 0.0 | 0.00 | 0.00 | 0.00 | 78 | 1014.4 |
| 20260507061546 | 34 | 0 | 0.0 | 0.0 | 0.00 | 0.00 | 0.00 | 78 | 1014.5 |
| 20260507061037 | 34 | 0 | 0.0 | 0.0 | 0.00 | 0.00 | 0.00 | 78 | 1014.5 |
| 20260507060539 | 34 | 0 | 0.0 | 0.0 | 0.00 | 0.00 | 0.00 | 78 | 1014.5 |
| 20260507060051 | 34 | 0 | 0.0 | 0.0 | 0.00 | 0.00 | 0.00 | 77 | 1014.5 |
| 20260507055538 | 34 | 0 | 0.0 | 0.0 | 0.00 | 0.00 | 0.00 | 78 | 1014.4 |
| 20260507055038 | 34 | 0 | 0.0 | 0.0 | 0.00 | 0.00 | 0.00 | 78 | 1014.3 |
| 20260507054552 | 34 | 0 | 0.0 | 1.0 | 0.00 | 0.00 | 0.00 | 79 | 1014.5 |
| 20260507054038 | 34 | 0 | 0.0 | 1.0 | 0.00 | 0.00 | 0.00 | 79 | 1014.4 |
| 20260507053538 | 34 | 0 | 0.0 | 1.0 | 0.00 | 0.00 | 0.00 | 78 | 1014.4 |
| 20260507053047 | 34 | 0 | 0.0 | 1.0 | 0.00 | 0.00 | 0.00 | 78 | 1014.4 |
| 20260507052535 | 34 | 0 | 0.0 | 0.0 | 0.00 | 0.00 | 0.00 | 79 | 1014.4 |
| 20260507052038 | 34 | 0 | 0.0 | 0.0 | 0.00 | 0.00 | 0.00 | 79 | 1014.6 |
| 20260507051541 | 34 | 0 | 0.0 | 0.0 | 0.00 | 0.00 | 0.00 | 79 | 1014.6 |
| 20260507051035 | 34 | 0 | 0.0 | 1.0 | 0.00 | 0.00 | 0.00 | 80 | 1014.5 |
| 20260507050535 | 34 | 0 | 0.0 | 1.0 | 0.00 | 0.00 | 0.00 | 80 | 1014.5 |
| 20260507050047 | 34 | 0 | 0.0 | 0.0 | 0.00 | 0.00 | 0.00 | 81 | 1014.6 |
| 20260507045537 | 34 | 0 | 0.0 | 0.0 | 0.00 | 0.00 | 0.00 | 81 | 1014.5 |
| 20260507045038 | 34 | 0 | 0.0 | 0.0 | 0.00 | 0.00 | 0.00 | 81 | 1014.5 |
| 20260507044551 | 34 | 0 | 0.0 | 0.0 | 0.00 | 0.00 | 0.00 | 80 | 1014.5 |
| 20260507044038 | 34 | 0 | 0.0 | 0.0 | 0.00 | 0.00 | 0.00 | 79 | 1014.6 |
| 20260507043539 | 34 | 0 | 0.0 | 0.0 | 0.00 | 0.00 | 0.00 | 79 | 1014.6 |
| 20260507043044 | 34 | 0 | 0.0 | 0.0 | 0.00 | 0.00 | 0.00 | 78 | 1014.5 |
| 20260507042537 | 34 | 0 | 0.0 | 0.0 | 0.00 | 0.00 | 0.00 | 77 | 1014.5 |
| 20260507042038 | 35 | 0 | 0.0 | 0.0 | 0.00 | 0.00 | 0.00 | 76 | 1014.5 |
| 20260507041553 | 35 | 0 | 0.0 | 0.0 | 0.00 | 0.00 | 0.00 | 75 | 1014.6 |
| 20260507041034 | 35 | 0 | 0.0 | 0.0 | 0.00 | 0.00 | 0.00 | 74 | 1014.6 |
| 20260507040533 | 36 | 0 | 0.0 | 1.0 | 0.00 | 0.00 | 0.00 | 72 | 1014.5 |
| 20260507040048 | 36 | 0 | 0.0 | 1.0 | 0.00 | 0.00 | 0.00 | 71 | 1014.6 |
| 20260507035534 | 37 | 0 | 0.0 | 0.0 | 0.00 | 0.00 | 0.00 | 71 | 1014.5 |
| 20260507035033 | 37 | 0 | 0.0 | 1.0 | 0.00 | 0.00 | 0.00 | 69 | 1014.6 |
| 20260507034549 | 38 | 0 | 0.0 | 1.0 | 0.00 | 0.00 | 0.00 | 68 | 1014.6 |
| 20260507034032 | 38 | 0 | 0.0 | 1.0 | 0.00 | 0.00 | 0.00 | 67 | 1014.6 |
| 20260507033534 | 38 | 0 | 0.0 | 2.0 | 0.00 | 0.00 | 0.00 | 66 | 1014.6 |
| 20260507033041 | 39 | 0 | 0.0 | 2.0 | 0.00 | 0.00 | 0.00 | 66 | 1014.9 |
| 20260507032534 | 39 | 0 | 0.0 | 2.0 | 0.00 | 0.00 | 0.00 | 65 | 1014.7 |
| 20260507032038 | 39 | 0 | 0.0 | 0.0 | 0.00 | 0.00 | 0.00 | 65 | 1014.8 |
| 20260507031547 | 40 | 0 | 0.0 | 1.0 | 0.00 | 0.00 | 0.00 | 64 | 1015.0 |
| 20260507031036 | 40 | 0 | 0.0 | 2.0 | 0.00 | 0.00 | 0.00 | 63 | 1014.8 |
| 20260507030533 | 40 | 0 | 0.0 | 2.0 | 0.00 | 0.00 | 0.00 | 63 | 1014.9 |
| 20260507030044 | 41 | 296 | 0.0 | 2.0 | 0.00 | 0.00 | 0.00 | 62 | 1014.8 |
| 20260507025533 | 41 | 0 | 0.0 | 3.0 | 0.00 | 0.00 | 0.00 | 62 | 1014.7 |
| 20260507025033 | 42 | 297 | 0.0 | 4.0 | 0.00 | 0.00 | 0.00 | 61 | 1014.7 |
| 20260507024542 | 42 | 297 | 1.0 | 4.0 | 0.00 | 0.00 | 0.00 | 61 | 1014.6 |
| 20260507024037 | 42 | 0 | 1.0 | 7.0 | 0.00 | 0.00 | 0.00 | 61 | 1014.6 |
| 20260507023533 | 42 | 298 | 1.0 | 7.0 | 0.00 | 0.00 | 0.00 | 60 | 1014.6 |
| 20260507023046 | 43 | 0 | 2.0 | 7.0 | 0.00 | 0.00 | 0.00 | 60 | 1014.5 |
| 20260507022538 | 43 | 0 | 2.0 | 10.0 | 0.00 | 0.00 | 0.00 | 60 | 1014.5 |